GW4074 Weather Reports


time (UTC)temp
F
wind
direction
speed
knots
gust
knots
rain 1hr
in
rain 24hr
in
rain mn
in
humidity
%
barometer
mb
20260505022704 68 137 1.7 1.7 0.00 0.00 0.00 57 1009.8
20260505022200 68 139 1.7 2.6 0.00 0.00 0.00 57 1009.9
20260505021656 68 135 2.6 2.6 0.00 0.00 0.00 56 1009.9
20260505021153 67 154 1.7 2.6 0.00 0.00 0.00 58 1009.9
20260505020649 67 147 1.7 2.6 0.00 0.00 0.00 60 1010.0
20260505020145 68 153 1.7 2.6 0.00 0.00 0.00 59 1010.0
20260505015642 68 143 1.7 3.5 0.00 0.00 0.00 58 1010.0
20260505015139 68 166 0.0 2.6 0.00 0.00 0.00 58 1010.4
20260505014636 68 128 1.7 1.7 0.00 0.00 0.00 57 1010.2
20260505014133 68 153 1.7 1.7 0.00 0.00 0.00 57 1010.3
20260505013630 68 140 0.0 1.7 0.00 0.00 0.00 56 1010.2
20260505013127 68 170 2.6 3.5 0.00 0.00 0.00 55 1010.3
20260505012626 69 128 1.7 1.7 0.00 0.00 0.00 58 1010.3
20260505012122 69 129 1.7 2.6 0.00 0.00 0.00 56 1010.3
20260505011618 68 150 1.7 2.6 0.00 0.00 0.00 56 1010.4
20260505011115 68 169 1.7 3.5 0.00 0.00 0.00 55 1010.5
20260505010610 68 158 2.6 3.5 0.00 0.00 0.00 56 1010.5
20260505010107 68 168 2.6 3.5 0.00 0.00 0.00 56 1010.5
20260505005603 69 168 1.7 3.5 0.00 0.00 0.00 55 1010.5
20260505005101 70 173 2.6 3.5 0.00 0.00 0.00 53 1010.8
20260505004557 71 173 2.6 2.6 0.00 0.00 0.00 53 1010.5
20260505004054 70 176 2.6 3.5 0.00 0.00 0.00 52 1010.7
20260505003552 72 179 3.5 3.5 0.00 0.00 0.00 51 1010.8
20260505003049 71 178 1.7 2.6 0.00 0.00 0.00 51 1010.7
20260505002543 71 175 3.5 3.5 0.00 0.00 0.00 52 1010.7
20260505002043 72 153 1.7 2.6 0.00 0.00 0.00 52 1010.3
20260505001540 71 174 0.9 4.3 0.00 0.00 0.00 52 1010.4
20260505001037 71 138 3.5 3.5 0.00 0.00 0.00 52 1010.5
20260505000534 71 125 2.6 2.6 0.00 0.00 0.00 51 1010.5
20260505000032 72 143 2.6 3.5 0.00 0.00 0.00 52 1010.7
20260504235528 72 136 3.5 3.5 0.00 0.00 0.00 52 1010.5
20260504235025 73 123 2.6 3.5 0.00 0.00 0.00 50 1010.3
20260504234522 73 191 4.3 5.2 0.00 0.00 0.00 49 1010.3
20260504234019 73 131 3.5 3.5 0.00 0.00 0.00 49 1010.4
20260504233514 73 173 1.7 3.5 0.00 0.00 0.00 48 1010.5
20260504233011 73 132 2.6 3.5 0.00 0.00 0.00 49 1010.7
20260504232508 72 139 1.7 2.6 0.00 0.00 0.00 49 1010.4
20260504232006 73 138 1.7 2.6 0.00 0.00 0.00 47 1010.3
20260504231502 74 117 1.7 3.5 0.00 0.00 0.00 46 1010.5
20260504230958 74 125 1.7 3.5 0.00 0.00 0.00 45 1010.7
20260504230455 74 134 2.6 3.5 0.00 0.00 0.00 46 1010.3
20260504225954 75 122 2.6 3.5 0.00 0.00 0.00 45 1010.3
20260504225450 75 121 2.6 3.5 0.00 0.00 0.00 44 1010.7
20260504224947 75 197 0.0 2.6 0.00 0.00 0.00 43 1010.7
20260504224444 75 190 0.0 3.5 0.00 0.00 0.00 43 1010.9
20260504223941 75 157 2.6 4.3 0.00 0.00 0.00 43 1010.5
20260504223437 77 144 1.7 2.6 0.00 0.00 0.00 41 1010.7
20260504222933 77 122 3.5 3.5 0.00 0.00 0.00 42 1010.7
20260504222431 79 145 1.7 3.5 0.00 0.00 0.00 38 1010.7
20260504221928 78 180 0.9 3.5 0.00 0.00 0.00 38 1010.8
20260504221425 79 181 3.5 4.3 0.00 0.00 0.00 36 1010.9
20260504220922 77 120 1.7 2.6 0.00 0.00 0.00 39 1010.8
20260504220419 77 60 0.9 3.5 0.00 0.00 0.00 37 1011.0
20260504215916 77 134 1.7 4.3 0.00 0.00 0.00 39 1011.0
20260504215412 77 131 1.7 4.3 0.00 0.00 0.00 39 1011.2
20260504214909 78 147 1.7 1.7 0.00 0.00 0.00 39 1011.1
20260504214405 78 131 2.6 3.5 0.00 0.00 0.00 39 1010.8
20260504213902 77 190 2.6 3.5 0.00 0.00 0.00 40 1010.9
20260504213358 79 197 1.7 2.6 0.00 0.00 0.00 38 1011.0
20260504212855 78 236 0.9 3.5 0.00 0.00 0.00 39 1011.2
20260504212351 77 110 1.7 4.3 0.00 0.00 0.00 41 1011.2
20260504211849 76 137 1.7 2.6 0.00 0.00 0.00 42 1011.0
20260504211345 77 110 3.5 4.3 0.00 0.00 0.00 40 1011.2
20260504210843 78 145 1.7 3.5 0.00 0.00 0.00 41 1011.0
20260504210340 77 303 0.9 2.6 0.00 0.00 0.00 41 1011.1
20260504205837 76 185 1.7 5.2 0.00 0.00 0.00 41 1011.0
20260504205334 78 224 0.9 3.5 0.00 0.00 0.00 41 1011.1
20260504204832 78 192 3.5 4.3 0.00 0.00 0.00 41 1011.0
20260504204331 77 152 0.9 4.3 0.00 0.00 0.00 40 1011.1
20260504203830 77 158 0.9 4.3 0.00 0.00 0.00 38 1011.3
20260504203326 77 153 0.9 2.6 0.00 0.00 0.00 41 1011.3
20260504202822 78 187 4.3 4.3 0.00 0.00 0.00 37 1011.3
20260504202320 80 159 1.7 2.6 0.00 0.00 0.00 30 1011.0
20260504201816 79 136 1.7 2.6 0.00 0.00 0.00 35 1011.3
20260504201313 78 28 0.0 2.6 0.00 0.00 0.00 32 1011.1
20260504200811 78 283 2.6 3.5 0.00 0.00 0.00 32 1011.1
20260504200307 76 3 0.0 4.3 0.00 0.00 0.00 42 1011.2
20260504195803 78 147 1.7 1.7 0.00 0.00 0.00 39 1011.0
20260504195259 77 147 0.0 1.7 0.00 0.00 0.00 40 1011.0
20260504194756 77 145 1.7 2.6 0.00 0.00 0.00 41 1011.1
20260504194252 78 193 1.7 3.5 0.00 0.00 0.00 40 1011.2
20260504193749 77 191 0.9 1.7 0.00 0.00 0.00 39 1011.2
20260504193246 77 112 3.5 3.5 0.00 0.00 0.00 38 1011.0
20260504192744 77 325 0.0 1.7 0.00 0.00 0.00 38 1011.1
20260504192242 76 349 1.7 3.5 0.00 0.00 0.00 36 1011.1
20260504191741 76 283 1.7 7.0 0.00 0.00 0.00 39 1011.0
20260504191237 76 87 0.9 4.3 0.00 0.00 0.00 34 1011.0
20260504190732 77 4 1.7 2.6 0.00 0.00 0.00 40 1011.1
20260504190229 75 108 1.7 1.7 0.00 0.00 0.00 44 1011.0
20260504185726 74 174 3.5 4.3 0.00 0.00 0.00 44 1011.1
20260504185223 74 195 4.3 4.3 0.00 0.00 0.00 44 1011.2
20260504184719 74 138 1.7 5.2 0.00 0.00 0.00 46 1011.0
20260504184215 75 192 1.7 4.3 0.00 0.00 0.00 43 1011.1
20260504183711 74 230 2.6 3.5 0.00 0.00 0.00 45 1011.2
20260504183208 75 199 2.6 3.5 0.00 0.00 0.00 47 1011.1
20260504182706 74 185 1.7 1.7 0.00 0.00 0.00 47 1011.4
20260504182203 73 144 3.5 3.5 0.00 0.00 0.00 47 1011.4
20260504181700 72 180 0.9 4.3 0.00 0.00 0.00 47 1011.3
20260504181158 73 171 1.7 3.5 0.00 0.00 0.00 45 1011.2
20260504180657 73 180 2.6 5.2 0.00 0.00 0.00 44 1011.1
20260504180155 72 168 1.7 5.2 0.00 0.00 0.00 44 1011.2
20260504175652 72 122 1.7 3.5 0.00 0.00 0.00 48 1011.1
20260504175148 72 180 0.0 2.6 0.00 0.00 0.00 47 1010.9
20260504174647 71 126 3.5 4.3 0.00 0.00 0.00 48 1011.2
20260504174143 72 148 1.7 3.5 0.00 0.00 0.00 47 1011.0
20260504173640 71 116 1.7 2.6 0.00 0.00 0.00 50 1010.9
20260504173138 71 168 1.7 3.5 0.00 0.00 0.00 48 1011.0
20260504172634 71 139 2.6 5.2 0.00 0.00 0.00 48 1010.9
20260504172131 73 52 2.6 2.6 0.00 0.00 0.00 42 1011.1
20260504171627 72 149 1.7 5.2 0.00 0.00 0.00 41 1011.0
20260504171125 72 205 0.9 2.6 0.00 0.00 0.00 48 1011.1
20260504170620 72 227 0.0 1.7 0.00 0.00 0.00 40 1011.0
20260504170118 72 135 0.0 3.5 0.00 0.00 0.00 41 1011.1
20260504151004 66 89 0.0 6.1 0.00 0.00 0.00 48 1010.4
20260504150501 66 121 4.3 4.3 0.00 0.00 0.00 48 1010.4
20260504140922 65 119 3.5 6.1 0.00 0.00 0.00 49 1010.1
20260504140418 64 107 1.7 3.5 0.00 0.00 0.00 50 1010.1
20260504130344 62 115 1.7 3.5 0.00 0.00 0.00 39 1009.7
20260504120306 63 359 1.7 1.7 0.00 0.00 0.00 39 1009.8
20260504110230 65 359 0.9 1.7 0.00 0.00 0.00 33 1010.1
20260504100147 63 19 1.7 2.6 0.00 0.00 0.00 40 1009.9
20260504090110 67 299 0.0 2.6 0.00 0.00 0.00 33 1010.0
20260504081540 66 34 2.6 3.5 0.00 0.00 0.00 37 1010.0
20260504081036 66 6 2.6 3.5 0.00 0.00 0.00 37 1009.8
20260504080533 67 350 1.7 2.6 0.00 0.00 0.00 36 1009.9
20260504050347 68 34 1.7 2.6 0.00 0.00 0.00 33 1010.7
20260504045844 69 23 1.7 2.6 0.00 0.00 0.00 32 1010.7
20260504045343 68 8 0.9 1.7 0.00 0.00 0.00 32 1010.7
20260504044841 68 22 2.6 2.6 0.00 0.00 0.00 32 1010.5
20260504044338 68 335 1.7 1.7 0.00 0.00 0.00 34 1010.5
20260504043835 68 322 2.6 2.6 0.00 0.00 0.00 32 1010.7
20260504043332 68 353 1.7 2.6 0.00 0.00 0.00 33 1010.7
20260504042830 68 328 2.6 3.5 0.00 0.00 0.00 32 1010.4
20260504042326 68 322 3.5 4.3 0.00 0.00 0.00 33 1010.5
20260504041822 67 340 1.7 4.3 0.00 0.00 0.00 34 1010.8
20260504041318 67 355 1.7 3.5 0.00 0.00 0.00 34 1010.5
20260504040815 68 335 2.6 3.5 0.00 0.00 0.00 34 1010.4
20260504040313 68 16 1.7 3.5 0.00 0.00 0.00 33 1010.4
20260504035808 69 346 1.7 2.6 0.00 0.00 0.00 31 1010.3
20260504035306 69 357 1.7 3.5 0.00 0.00 0.00 31 1010.3
20260504034803 69 342 2.6 3.5 0.00 0.00 0.00 32 1010.3
20260504034300 69 334 1.7 3.5 0.00 0.00 0.00 31 1010.3
20260504033757 70 342 1.7 3.5 0.00 0.00 0.00 31 1010.4
20260504033255 71 324 2.6 3.5 0.00 0.00 0.00 31 1010.4
20260504032751 70 326 2.6 4.3 0.00 0.00 0.00 32 1010.5
20260504032248 71 324 2.6 3.5 0.00 0.00 0.00 33 1010.2
20260504031745 71 328 2.6 3.5 0.00 0.00 0.00 33 1010.3
20260504031243 71 355 0.9 3.5 0.00 0.00 0.00 32 1010.5
20260504030738 71 329 2.6 3.5 0.00 0.00 0.00 30 1010.4
20260504030236 72 339 1.7 3.5 0.00 0.00 0.00 30 1010.5
20260504025732 72 336 1.7 3.5 0.00 0.00 0.00 29 1010.4
20260504025229 72 320 2.6 3.5 0.00 0.00 0.00 29 1010.8
20260504024726 73 336 2.6 3.5 0.00 0.00 0.00 29 1010.5
20260504024223 73 345 1.7 3.5 0.00 0.00 0.00 28 1010.9
20260504023720 73 357 0.9 2.6 0.00 0.00 0.00 30 1010.8
20260504023215 73 11 0.0 2.6 0.00 0.00 0.00 29 1010.8